Regional Weather Roundup
Issued by NWS

Home | Current Version | Previous Version | Graphics & Text | Print | Product List | Glossary On
Versions: 1 2 3 4 5 6 7 8 9 10 11 12 13 14 15 16 17 18 19 20 21 22 23 24 25 26 27 28 29 30 31 32 33 34 35 36 37 38 39 40 41 42 43 44 45 46 47 48 49 50
258
ASUS43 KMKX 240611
RWRWI

WISCONSIN REGIONAL WEATHER ROUNDUP
NATIONAL WEATHER SERVICE MILWAUKEE/SULLIVAN WI
100 AM CDT THU MAY 24 2018

NOTE: "FAIR" INDICATES FEW OR NO CLOUDS BELOW 12,000 FEET WITH NO
SIGNIFICANT WEATHER AND/OR OBSTRUCTIONS TO VISIBILITY.

WIZ001-002-006>008-014>016-023>028-240700-
NORTHWEST WISCONSIN

CITY           SKY/WX    TMP DP  RH WIND       PRES   REMARKS
SUPERIOR ARPT  FAIR      50  46  84 NE7       30.08S
6HR MIN TEMP:  50; 6HR MAX TEMP:  56;

ASHLAND        FAIR      53  53 100 CALM      30.09F
6HR MIN TEMP:  52; 6HR MAX TEMP:  68;

HAYWARD        MOCLDY    63  60  90 CALM      30.10F
6HR MIN TEMP:  62; 6HR MAX TEMP:  78;

SIREN          MOCLDY    69  60  72 S7        30.08S
6HR MIN TEMP:  67; 6HR MAX TEMP:  79;

CUMBERLAND     CLOUDY    68  59  73 E3        30.10S
RICE LAKE      FAIR      67  61  81 CALM      30.12S
6HR MIN TEMP:  66; 6HR MAX TEMP:  80;

CHETEK         FAIR      66  62  89 CALM      30.10F
6HR MIN TEMP:  65; 6HR MAX TEMP:  79;

LADYSMITH      FAIR      64  59  83 SE5       30.13F
6HR MIN TEMP:  64; 6HR MAX TEMP:  76;

EAU CLAIRE     FAIR      68  62  81 S7        30.09F
6HR MIN TEMP:  68; 6HR MAX TEMP:  79;

MENOMONIE      FAIR      67  62  84 CALM      30.09S
6HR MIN TEMP:  67; 6HR MAX TEMP:  79;

NEW RICHMOND   FAIR      70  60  71 SE7       30.07S
6HR MIN TEMP:  69; 6HR MAX TEMP:  79;

OSCEOLA        FAIR      70  62  75 SE5       30.09S
6HR MIN TEMP:  69; 6HR MAX TEMP:  80;

$$

WIZ003>005-009-010-017-018-240700-
NORTH CENTRAL WISCONSIN

CITY           SKY/WX    TMP DP  RH WIND       PRES   REMARKS
MANITOWISH WTR FAIR      54  54 100 CALM      30.15S FOG
6HR MIN TEMP:  54; 6HR MAX TEMP:  78;

ARBOR VITAE    FAIR      59  57  92 CALM      30.15S
6HR MIN TEMP:  59; 6HR MAX TEMP:  79;

WOODRUFF       FAIR      59  57  92 CALM      30.15S
6HR MIN TEMP:  59; 6HR MAX TEMP:  79;

RHINELANDER    FAIR      62  60  93 CALM      30.17S
6HR MIN TEMP:  60; 6HR MAX TEMP:  79;

EAGLE RIVER    FAIR      60  58  94 CALM      30.15S
6HR MIN TEMP:  59; 6HR MAX TEMP:  79;

LAND O LAKES   FAIR      55  53  93 CALM      30.17S
6HR MIN TEMP:  55; 6HR MAX TEMP:  80;

PHILLIPS       FAIR      62  61  94 S3        30.14S
6HR MIN TEMP:  62; 6HR MAX TEMP:  77;

TOMAHAWK       FAIR      58  57  94 CALM      30.16S
6HR MIN TEMP:  58; 6HR MAX TEMP:  77;

MEDFORD        FAIR      62  58  88 SE5       30.14F
6HR MIN TEMP:  62; 6HR MAX TEMP:  75;

MERRILL        FAIR      56  56 100 CALM      30.15F
6HR MIN TEMP:  56; 6HR MAX TEMP:  76;

$$

WIZ029-030-035-036-043>047-240700-
CENTRAL WISCONSIN

CITY           SKY/WX    TMP DP  RH WIND       PRES   REMARKS
WAUSAU         FAIR      63  60  90 SE5       30.14R
6HR MIN TEMP:  62; 6HR MAX TEMP:  76;

MOSINEE        FAIR      61  59  94 S3        30.16S
MARSHFIELD     FAIR      63  61  93 SE3       30.14S
6HR MIN TEMP:  63; 6HR MAX TEMP:  76;

STEVENS POINT  FAIR      59  58  99 CALM      30.16S
6HR MIN TEMP:  58; 6HR MAX TEMP:  76;

WAUPACA        FAIR      62  61  95 CALM      30.16S
6HR MIN TEMP:  62; 6HR MAX TEMP:  78;

WAUTOMA        FAIR      61  60  97 CALM      30.16F
6HR MIN TEMP:  60; 6HR MAX TEMP:  79;

WISC RAPIDS    FAIR      63  60  90 S3        30.15F
6HR MIN TEMP:  62; 6HR MAX TEMP:  78;

CAMP DOUGLAS   FAIR      62  62 100 S6        30.13F
6HR MIN TEMP:  59; 6HR MAX TEMP:  77; 6HR PCP: TRACE;

$$

WIZ011>013-019>022-031-037>040-048>050-240700-
NORTHEAST WISCONSIN

CITY           SKY/WX    TMP DP  RH WIND       PRES   REMARKS
ANTIGO         FAIR      60  56  89 S5        30.17S
6HR MIN TEMP:  58; 6HR MAX TEMP:  75;

SHAWANO        FAIR      65  58  79 CALM      30.15S
6HR MIN TEMP:  65; 6HR MAX TEMP:  80;

OCONTO         FAIR      60  55  86 CALM      30.14F
6HR MIN TEMP:  60; 6HR MAX TEMP:  76;

STURGEON BAY   FAIR      64  46  52 S8        30.16S
6HR MIN TEMP:  61; 6HR MAX TEMP:  69;

GREEN BAY      FAIR      59  52  77 S3        30.16S
6HR MIN TEMP:  59; 6HR MAX TEMP:  77;

MANITOWOC      FAIR      63  48  58 SW5       30.17S
6HR MIN TEMP:  57; 6HR MAX TEMP:  67;

APPLETON       FAIR      61  52  72 SE3       30.15F
CLINTONVILLE   FAIR      62  55  77 CALM      30.16R
6HR MIN TEMP:  62; 6HR MAX TEMP:  77;

OSHKOSH        FAIR      65  57  75 S8        30.16S
6HR MIN TEMP:  62; 6HR MAX TEMP:  74;

$$

WIZ032>034-041-042-053>061-240700-
SOUTHWEST WISCONSIN

CITY           SKY/WX    TMP DP  RH WIND       PRES   REMARKS
LA CROSSE      FAIR      67  62  84 SE6       30.11S
6HR MIN TEMP:  67; 6HR MAX TEMP:  81;

SPARTA         FAIR      56  56  98 CALM      30.14S
6HR MIN TEMP:  56; 6HR MAX TEMP:  78;

VIROQUA        FAIR      67  62  82 SE9       30.15S
6HR MIN TEMP:  66; 6HR MAX TEMP:  78;

BOSCOBEL       FOG       61  60  97 CALM      30.14F VSB 3/4
6HR MIN TEMP:  61; 6HR MAX TEMP:  81;

PRAIRIE DU CHI FAIR      65  60  82 CALM      30.12F
6HR MIN TEMP:  65; 6HR MAX TEMP:  79;

PLATTEVILLE    FAIR      67  61  81 SE8       30.16S
6HR MIN TEMP:  67; 6HR MAX TEMP:  77;

$$

WIZ056-057-062-063-064-067-068-240700-
SOUTH CENTRAL WISCONSIN

CITY           SKY/WX    TMP DP  RH WIND       PRES   REMARKS
REEDSBURG      FAIR      63  63 100 CALM      30.15S
6HR MIN TEMP:  63; 6HR MAX TEMP:  77;

BARABOO/DELLS  FAIR      62  58  86 S5        30.15F
6HR MIN TEMP:  62; 6HR MAX TEMP:  78;

LONE ROCK      FAIR      62  62 100 CALM      30.14F
6HR MIN TEMP:  61; 6HR MAX TEMP:  77;

MINERAL POINT  FAIR      66  61  82 E5        30.16F
MADISON        FAIR      67  59  75 S6        30.15F
6HR MIN TEMP:  64; 6HR MAX TEMP:  77;

MIDDLETON      FAIR      61  61 100 CALM      30.17S
6HR MIN TEMP:  60; 6HR MAX TEMP:  78;

WATERTOWN      FAIR      60  56  86 CALM      30.17S
6HR MIN TEMP:  60; 6HR MAX TEMP:  76;

MONROE         FAIR      64  55  72 SE7       30.16F
JANESVILLE     FAIR      63  52  67 E3        30.17S
$$

WIZ051-052-058>065-066-070>072-240700-
SOUTHEAST WISCONSIN

CITY           SKY/WX    TMP DP  RH WIND       PRES   REMARKS
MILWAUKEE      FAIR      61  49  64 S3        30.18F
6HR MIN TEMP:  60; 6HR MAX TEMP:  70;

WAUKESHA       FAIR      55  46  71 S3        30.19F
MILWAUKEE/TIMM FAIR      57  46  67 CALM      30.19F
RACINE         FAIR      55  53  93 CALM      30.20F
6HR MIN TEMP:  53; 6HR MAX TEMP:  68;

BURLINGTON     FAIR      55  53  94 CALM      30.18F
6HR MIN TEMP:  55; 6HR MAX TEMP:  74;

KENOSHA        FAIR      56  52  86 S5        30.18F
6HR MIN TEMP:  53; 6HR MAX TEMP:  70;

FOND DU LAC    FAIR      62  55  77 S6        30.16F
6HR MIN TEMP:  62; 6HR MAX TEMP:  78;

SHEBOYGAN      FAIR      58  50  75 CALM      30.17F
6HR MIN TEMP:  54; 6HR MAX TEMP:  69;

WEST BEND      FAIR      54  50  87 CALM      30.18F
JUNEAU         FAIR      61  55  81 CALM      30.18F
6HR MIN TEMP:  61; 6HR MAX TEMP:  75;

$$

LSZ147-162-240700-
LAKE SUPERIOR

STATION/POSITION TIME  TEMP    WIND        PRES    WAVE
                       AIR SEA DIR/SP/G            HT/PER
                 (UTC) (F)     (DEG/KT/KT) (MB)    (FT/S)
W MID LAKE BUOY  0550   39 36  350/  6/  8 1019.8R   0
DEVILS ISLAND    0600   44      70/  6/  7 1019.6F
SAXON HARBOR     0530   57      CALM  /  1 1018.3F
$$

LMZ867-665-643>646-240700-
LAKE MICHIGAN



USA.gov is the U.S. government's official web portal to all federal, state and local government web resources and services.